Hourly Data Report for March 01, 2012

BAGOTVILLE A
QUEBEC

48°20'00.000" N
71°00'00.000" W
159.10 m
7060400
71727
YBG

Download Data

Hourly Data (March 2012)
Hourly Data Report for March 1, 2012
TIME
LST
Temp Definition
°C
Dew Point Definition
°C
Rel Hum Definition
%
Precip. Amount Definition
mm

Wind Dir Definition
10's deg

Wind Spd Definition
km/h
Visibility Definition
km
Stn Press Definition
kPa
Hmdx Definition


Wind Chill Definition


Weather Definition


00:00 -15.5 -19.7 70   10 11 24.1 100.39   -22 Clear
01:00 -15.8 -20.1 69   12 7 24.1 100.30   -21 Mainly Clear
02:00 -15.5 -19.0 74   12 11 24.1 100.27   -22 Mainly Clear
03:00 -14.0 -18.4 69   12 17 24.1 100.24   -22 Mainly Clear
04:00 -12.5 -16.4 73   12 22 24.1 100.18   -21 Mainly Clear
05:00 -12.4 -15.8 76   10 26 24.1 100.13   -22 Mainly Clear
06:00 -12.6 -16.0 76   11 20 40.2 100.09   -21 Mostly Cloudy
07:00 -12.2 -15.5 76   10 28 40.2 100.07   -22 Mostly Cloudy
08:00 -11.9 -14.7 80   11 28 40.2 100.09   -22 Mostly Cloudy
09:00 -11.0 -17.2 60   10 28 40.2 100.06   -21 Mostly Cloudy
10:00 -9.5 -17.2 53   11 28 40.2 100.04   -19 Mostly Cloudy
11:00 -8.8 -12.2 76   10 35 40.2 100.03   -19 Mostly Cloudy
12:00 -8.1 -14.5 60   9 32 40.2 99.99   -17 Mostly Cloudy
13:00 -7.9 -13.7 63   9 32 40.2 99.91   -17 Mostly Cloudy
14:00 -7.5 -15.6 52   9 35 40.2 99.84   -17 Mainly Clear
15:00 -7.0 -14.3 56   9 33 40.2 99.82   -16 Mainly Clear
16:00 -7.5 -11.4 74   9 33 40.2 99.82   -17 Mainly Clear
17:00 -8.2 -16.8 50   9 32 40.2 99.87   -17 Mainly Clear
18:00 -9.1 -16.0 57   10 22 40.2 99.94   -17 Mainly Clear
19:00 -9.8 -14.0 71   11 22 24.1 100.00   -18 Mainly Clear
20:00 -10.8 -13.8 79   11 24 24.1 99.99   -20 Mainly Clear
21:00 -11.4 -14.1 80   10 22 24.1 99.98   -20 Mainly Clear
22:00 -11.4 -14.1 80   11 19 24.1 99.97   -19 Mainly Clear
23:00 -10.6 -14.5 73   11 22 24.1 99.95   -19 Mostly Cloudy

Notes on Data Quality.

Legend

  • E = Estimated
  • M = Missing
  • NA = Not Available*
  • [empty] = Indicates an unobserved value
Date modified: